Regional Weather Roundup
Issued by NWS Wilmington, NC

Home | Current Version | Previous Version | Text Only | Print | Product List | Glossary On
Versions: 1 2 3 4 5 6 7 8 9 10 11 12 13 14 15 16 17 18 19 20 21 22 23 24 25 26 27 28 29 30 31 32 33 34 35 36 37 38 39 40 41 42 43 44 45 46 47 48 49 50
000
ASUS42 KILM 310013
RWRILM
RWRILM
REGIONAL HOURLY WEATHER ROUNDUP
NATIONAL WEATHER SERVICE WILMINGTON NC
800 PM EDT SUN AUG 30 2015

NOTE: "FAIR" INDICATES FEW OR NO CLOUDS BELOW 12,000 FEET WITH NO
SIGNIFICANT WEATHER AND/OR OBSTRUCTIONS TO VISIBILITY.

...............WFO WILMINGTON COUNTY WARNING AREA...............

......COASTAL NC AND SC COUNTIES......

CITY           SKY/WX    TMP DP  RH WIND       PRES   REMARKS
WILMINGTON     LGT RAIN  74  70  87 CALM      30.14R
N MYRTLE BEACH LGT RAIN  74  71  91 NE8       30.12F
MYRTLE BEACH   CLOUDY    79  70  73 E7        30.14S

......INLAND NC AND SC COUNTIES.......

CITY           SKY/WX    TMP DP  RH WIND       PRES   REMARKS
LUMBERTON      CLOUDY    72  69  90 E3        30.13S
ELIZABETHTOWN  CLOUDY    72  70  95 CALM      30.14R
WHITEVILLE     LGT RAIN  73  70  91 CALM      30.14R
FLORENCE       LGT RAIN  72  70  93 E6        30.12R
DARLINGTON     CLOUDY    70  66  88 CALM      30.14R

....................REST OF NORTH CAROLINA......................

.........EASTERN NC.........

CITY           SKY/WX    TMP DP  RH WIND       PRES   REMARKS
CAPE HATTERAS  CLOUDY    78  73  84 CALM      30.13S
JACKSONVILLE   CLOUDY    75  66  73 S6        30.13S
MOREHEAD CITY  CLOUDY    77  70  79 SW3       30.13S
KENANSVILLE      N/A     73  69  89 CALM      30.14R
NEW BERN       CLOUDY    77  70  79 S5        30.13S
ELIZABETH CITY MOCLDY    77  71  82 S3        30.13S

.........CENTRAL NC.........

CITY           SKY/WX    TMP DP  RH WIND       PRES   REMARKS
RALEIGH DURHAM CLOUDY    78  62  57 S3        30.12F
ROCKY MOUNT    CLOUDY    77  64  64 CALM      30.11F
ROANOKE RAPIDS NOT AVBL
FAYETTEVILLE   CLOUDY    72  69  90 S5        30.13R
HOFFMAN        CLOUDY    71  67  85 SE5       30.12S

.........WESTERN NC.........

CITY           SKY/WX    TMP DP  RH WIND       PRES   REMARKS
CHARLOTTE      LGT RAIN  77  59  53 SE8       30.13F
GREENSBORO     CLOUDY    76  62  62 S5        30.13S
HICKORY        NOT AVBL
BOONE          NOT AVBL
ASHEVILLE      NOT AVBL

.....................REST OF SOUTH CAROLINA.....................

.........EASTERN SC.........

CITY           SKY/WX    TMP DP  RH WIND       PRES   REMARKS
CHARLESTON     CLOUDY    75  71  87 SE12      30.09R
BEAUFORT MCAS  RAIN      76  74  93 E9        30.07S
HILTON HEAD    HVY RAIN  75  73  94 E9        30.07F VSB 1

.........CENTRAL SC.........

CITY           SKY/WX    TMP DP  RH WIND       PRES   REMARKS
COLUMBIA       LGT RAIN  73  70  90 E9        30.09S
ORANGEBURG     CLOUDY    76  71  85 SE3       30.10R
SUMTER SHAW    CLOUDY    72  71  94 E6        30.10R

.........WESTERN SC.........

CITY           SKY/WX    TMP DP  RH WIND       PRES   REMARKS
GREENVILLE     NOT AVBL
ROCK HILL      LGT RAIN  72  66  81 SE3       30.15R
ANDERSON       LGT RAIN  66  64  93 NE9       30.09F
CLEMSON        NOT AVBL
GREENWOOD      RAIN      67  66  97 NE7       30.12F FOG


...................COASTAL AND OFFSHORE REPORTS..................

................LOCAL PIERS AND NC RESERVE................


STATION/POSITION TIME  SKY/WX   TEMP    WIND        PRES    VSBY
                                AIR SEA DIR/SP/G
                 (UTC)          (F)     (DEG/KT/KT) (MB)    (MI)
JOHNY MRCER PIER NOT AVBL
NC RESRV MASNBRO NOT AVBL
OCEAN CREST PIER NOT AVBL
SPRINGMAID  PIER NOT AVBL


................COASTAL AND OFFSHORE BUOYS................


STATION/POSITION TIME  SKY/WX   TEMP    WIND        PRES    VSBY
                                AIR SEA DIR/SP/G
                 (UTC)          (F)     (DEG/KT/KT) (MB)    (MI)
DIMNDSHOAL 41025 2350            78 81  340/  4/  4 1020.4R
WVE H/P(F/S)=  3/10 SWL H/P/D(F/S/D)=  3/ 90/10

CAPE LOOKOUT     0000            78     240/  3/  3 1020.1R
ONSLOW BAY 41036 NOT AVBL
ONSLOW BAY 41064 2308            80 82  230/  4/  6 1020.4F
ONSLOW BAY 41159 2325               82                N/A
WVE H/P(F/S)=  3/11 WND WVE H/P(F/S)=  3/10 SWL H/P/D(F/S/D)=  2/140/11

5SE WRITBC 41038 2308            79 82  150/  2/  4 1020.3F
MASNBO INL 41110 2319               82                N/A
WVE H/P(F/S)=  3/11 WND WVE H/P(F/S)=  2/ 9 SWL H/P/D(F/S/D)=  2/140/11

WILM HARBR 41108 2311               82                N/A
WVE H/P(F/S)=  3/10 WND WVE H/P(F/S)=  2/10 SWL H/P/D(F/S/D)=  2/150/11

27SE WRITB 41037 2300            77 82   CALM  /  2   N/A
FRYING PAN 41013 2350            81 82  110/  2/  4 1020.3F
WVE H/P(F/S)=  4/11 WND WVE H/P(F/S)=  2/ 4 SWL H/P/D(F/S/D)=  3/140/11

SUNST NRSH 41024 NOT AVBL
CAPRS NRSH 41029 2308            78     100/ 19/ 25 1019.1F
EDISTO     41004 2350            78 84  100/ 16/ 17 1018.4F
WVE H/P(F/S)=  5/10 WND WVE H/P(F/S)=  2/ 5 SWL H/P/D(F/S/D)=  5/10



..........OFFSHORE BUOYS BEYOND 100 NM OFFSHORE...........
.....IN A TRIANGLE---HAT TO BERMUDA TO BAHAMAS TO HAT.....


STATION/POSITION TIME  SKY/WX   TEMP    WIND        PRES    VSBY
                                AIR SEA DIR/SP/G
                 (UTC)          (F)     (DEG/KT/KT) (MB)    (MI)
150E HAT   41001 0000            82 83  270/  4/  4 1019.5R
W BERMUDA  41048 2350            83 84  230/ 10/ 12 1020.8R
WVE H/P(F/S)=  4/ 8 WND WVE H/P(F/S)=  2/ 3 SWL H/P/D(F/S/D)=  3/140/ 8

ATLANTIC S 41049 2350            84 86   70/  6/  8 1020.4R
WVE H/P(F/S)=  4/11 WND WVE H/P(F/S)=  2/ 4 SWL H/P/D(F/S/D)=  3/ 40/11

E BAHAMAS  41046 2350            85 86   90/ 12/ 16 1018.6R
WVE H/P(F/S)=  4/10 WND WVE H/P(F/S)=  2/ 5 SWL H/P/D(F/S/D)=  3/ 50/10

NE BAHAMAS 41047 2350            85 86  110/ 16/ 17 1018.6S
WVE H/P(F/S)=  5/ 7 WND WVE H/P(F/S)=  3/ 7 SWL H/P/D(F/S/D)=  3/110/ 8

120E CANVRL41010 2320            84 86  150/ 12/ 14 1017.3S

END


USA.gov is the U.S. government's official web portal to all federal, state and local government web resources and services.